Whidbey Island, WA
on Thursday, January 17, 2013

Thursday
Previous Day Next Day
Daily Summary
 ActualAverageRecord
Temperature
Mean Temperature °F °F  
Max Temperature 42°F 45°F 52°F (2004)
Min Temperature 27°F 35°F 27°F (2013)
Degree Days
Heating Degree Days 30    
Moisture
Dew Point 30°F   
Average Humidity 88    
Maximum Humidity 93    
Minimum Humidity 73    
Precipitation
Precipitation 0.00 in in in ()
Wind
Wind Speed 5 mph   
Max Wind Speed 10 mph   
Max Gust Speed mph   
Visibility 6 miles   
Events Fog   
Averages and records for this station are not official NWS values.
Key: T is trace of precipitation, MM is missing value
Source: NWS Daily Summary
Seasonal Weather Averages
Time(PST)TemperatureDew PointHumidity Pressure Visibility Wind DirectionWind SpeedGust SpeedPrecipitationEvents Conditions
12:56 AM 27.0°F 25.0°F 92% 30.56 in 6.0 miles ESE 4.6 mph - N/A   Clear
1:56 AM 27.0°F 24.1°F 89% 30.54 in 7.0 miles ESE 5.8 mph - N/A   Clear
2:56 AM 28.0°F 25.0°F 88% 30.52 in 7.0 miles ESE 4.6 mph - N/A   Clear
3:56 AM 28.9°F 26.1°F 89% 30.51 in 8.0 miles ESE 4.6 mph - N/A   Clear
4:56 AM 28.9°F 26.1°F 89% 30.49 in 7.0 miles SSE 4.6 mph - N/A   Clear
5:56 AM 28.0°F 25.0°F 88% 30.48 in 7.0 miles ESE 3.5 mph - N/A Fog Patches of Fog
6:56 AM 27.0°F 24.1°F 89% 30.47 in 10.0 miles ESE 4.6 mph - N/A   Scattered Clouds
7:56 AM 30.9°F 28.9°F 92% 30.47 in 9.0 miles Calm Calm - N/A Fog Patches of Fog
8:56 AM 30.9°F 28.9°F 92% 30.48 in 10.0 miles SE 3.5 mph - N/A   Mostly Cloudy
9:56 AM 35.1°F 32.0°F 89% 30.48 in 10.0 miles ESE 4.6 mph - N/A   Mostly Cloudy
10:56 AM 39.0°F 37.0°F 93% 30.47 in 10.0 miles Calm Calm - N/A   Mostly Cloudy
11:56 AM 41.0°F 37.0°F 86% 30.44 in 10.0 miles Calm Calm - N/A   Overcast
12:56 PM 41.0°F 35.1°F 79% 30.42 in 10.0 miles NW 4.6 mph - N/A   Mostly Cloudy
1:56 PM 41.0°F 34.0°F 76% 30.38 in 10.0 miles East 6.9 mph - N/A   Mostly Cloudy
2:56 PM 42.1°F 34.0°F 73% 30.36 in 10.0 miles East 4.6 mph - N/A   Mostly Cloudy
3:56 PM 36.0°F 30.9°F 82% 30.35 in 10.0 miles ESE 6.9 mph - N/A   Mostly Cloudy
4:56 PM 33.1°F 30.0°F 89% 30.35 in 1.0 miles SE 6.9 mph - N/A   Mostly Cloudy
5:20 PM 33.8°F 30.2°F 87% 30.33 in 0.2 miles ESE 4.6 mph - N/A   Mostly Cloudy
5:56 PM 34.0°F 30.9°F 89% 30.34 in 0.2 miles ESE 4.6 mph - N/A   Mostly Cloudy
6:56 PM 36.0°F 33.1°F 89% 30.34 in 0.2 miles SSE 10.4 mph - N/A Fog Fog
7:56 PM 35.1°F 32.0°F 89% 30.34 in 0.2 miles SE 5.8 mph - N/A Fog Fog
8:56 PM 34.0°F 30.9°F 89% 30.33 in 0.2 miles East 3.5 mph - N/A Fog Fog
9:18 PM 33.8°F 32.0°F 93% 30.32 in 0.2 miles SE 5.8 mph - N/A Fog Fog
9:56 PM 33.1°F 30.9°F 92% 30.33 in 0.2 miles East 6.9 mph - N/A Fog Fog
10:56 PM 33.1°F 30.9°F 92% 30.32 in 0.2 miles East 4.6 mph - N/A Fog Fog
11:56 PM 33.1°F 30.9°F 92% 30.32 in 0.2 miles East 4.6 mph - N/A Fog Fog
Moon Phase
Jan. 17 Jan. 18 Jan. 26 Feb. 03 Feb. 10
Sunrise:07:55 AM (PST) Moon Rise:10:29 AM (PST)
Sunset:04:47 PM (PST) Moon Set:No Moon Set/

Copyright © 2014 The Weather Underground, Inc.